W5JXT Weather Reports


time (UTC)temp
C
wind
direction
speed
KPH
gust
KPH
rain 1hr
cm
rain 24hr
cm
rain mn
cm
humidity
%
barometer
mb
20260506004501 23 231 3.2 25.7 0.00 0.00 0.00 25 1009.2
20260506003000 24 209 8.0 32.2 0.00 0.00 0.00 24 1009.1
20260506001500 24 247 8.0 27.4 0.00 0.00 0.00 26 1009.1
20260506000000 25 272 8.0 30.6 0.00 0.00 0.00 25 1009.1
20260505234459 25 256 4.8 24.1 0.00 0.00 0.00 25 1008.9
20260505233000 25 288 4.8 22.5 0.00 0.00 0.00 25 1008.9
20260505231501 25 256 4.8 25.7 0.00 0.00 0.00 25 1008.8
20260505224500 25 234 6.4 27.4 0.00 0.00 0.00 25 1008.7
20260505221502 26 205 3.2 22.5 0.00 0.00 0.00 25 1008.6
20260505220002 26 215 4.8 16.1 0.00 0.00 0.00 27 1009.0
20260505214459 25 237 4.8 20.9 0.00 0.00 0.00 29 1009.2
20260505211500 25 219 8.0 27.4 0.00 0.00 0.00 25 1009.6
20260505210002 25 282 4.8 24.1 0.00 0.00 0.00 28 1009.7
20260505203000 25 233 4.8 16.1 0.00 0.00 0.00 27 1009.9
20260505200003 26 271 3.2 20.9 0.00 0.00 0.00 27 1009.9
20260505193000 25 257 3.2 20.9 0.00 0.00 0.00 28 1009.8
20260505191500 26 207 0.0 11.3 0.00 0.00 0.00 30 1010.1
20260505190003 26 288 0.0 4.8 0.00 0.00 0.00 28 1009.9
20260505184500 26 239 1.6 8.0 0.00 0.00 0.00 29 1010.3
20260505183000 25 214 1.6 14.5 0.00 0.00 0.00 30 1010.7
20260505181502 25 75 4.8 16.1 0.00 0.00 0.00 31 1010.9
20260505175959 23 188 3.2 14.5 0.00 0.00 0.00 36 1011.0
20260505172959 23 201 3.2 12.9 0.00 0.00 0.00 35 1011.0
20260505171500 22 184 3.2 11.3 0.00 0.00 0.00 35 1010.8
20260505170002 22 134 1.6 8.0 0.00 0.00 0.00 36 1011.1
20260505164501 22 139 0.0 4.8 0.00 0.00 0.00 37 1011.2
20260505163002 22 148 0.0 6.4 0.00 0.00 0.00 35 1011.3
20260505161508 22 224 1.6 8.0 0.00 0.00 0.00 37 1011.2
20260505153000 21 221 0.0 1.6 0.00 0.00 0.00 40 1011.0
20260505124459 18 13 0.0 4.8 0.00 0.00 0.00 43 1010.0
20260505121500 18 30 0.0 1.6 0.00 0.00 0.00 41 1009.8
20260505120003 18 307 0.0 1.6 0.00 0.00 0.00 39 1009.7
20260505113000 20 298 1.6 9.7 0.00 0.00 0.00 37 1009.2
20260505111459 20 308 4.8 56.3 0.00 0.00 0.00 36 1009.3
20260505101459 20 296 1.6 11.3 0.00 0.00 0.00 35 1009.4
20260505100002 20 311 1.6 8.0 0.00 0.00 0.00 36 1009.2
20260505094459 19 271 0.0 3.2 0.00 0.00 0.00 37 1009.2
20260505093001 18 122 0.0 6.4 0.00 0.00 0.00 38 1009.2
20260505091459 18 256 0.0 3.2 0.00 0.00 0.00 40 1009.3
20260505090001 17 256 0.0 0.0 0.00 0.00 0.00 40 1009.4
20260505084501 17 218 0.0 0.0 0.00 0.00 0.00 39 1009.6
20260505083002 17 331 0.0 0.0 0.00 0.00 0.00 38 1009.4
20260505081459 17 332 0.0 0.0 0.00 0.00 0.00 39 1009.2
20260505080002 18 318 0.0 0.0 0.00 0.00 0.00 38 1009.4
20260505074501 18 318 0.0 0.0 0.00 0.00 0.00 36 1009.4
20260505073000 18 70 0.0 0.0 0.00 0.00 0.00 36 1009.3
20260505070002 19 312 0.0 0.0 0.00 0.00 0.00 33 1009.2
20260505064500 20 312 0.0 0.0 0.00 0.00 0.00 30 1009.2
20260505063001 21 314 0.0 1.6 0.00 0.00 0.00 28 1009.1
20260505061500 22 252 0.0 1.6 0.00 0.00 0.00 26 1009.1
20260505053002 23 212 1.6 16.1 0.00 0.00 0.00 24 1009.3
20260505051500 23 259 1.6 17.7 0.00 0.00 0.00 24 1009.6
20260505041501 22 221 0.0 8.0 0.00 0.00 0.00 25 1009.7
20260505040002 23 259 1.6 11.3 0.00 0.00 0.00 25 1009.6
20260505034500 22 232 1.6 14.5 0.00 0.00 0.00 25 1009.5
20260505033001 22 262 1.6 17.7 0.00 0.00 0.00 26 1009.2
20260505031501 22 252 0.0 9.7 0.00 0.00 0.00 28 1008.9
20260505030002 22 278 0.0 8.0 0.00 0.00 0.00 28 1008.8
20260505023002 23 259 0.0 9.7 0.00 0.00 0.00 24 1008.6
20260505021500 24 212 0.0 8.0 0.00 0.00 0.00 23 1008.8
20260505014500 25 236 0.0 1.6 0.00 0.00 0.00 22 1008.8
20260505013001 25 239 0.0 6.4 0.00 0.00 0.00 20 1008.6
20260505011501 25 255 0.0 4.8 0.00 0.00 0.00 21 1008.6